Green Valley, IL (61534)

6:22 AM CDT on September 05, 2015 (GMT -0500)
Green Acres | | Change Station
CLOSE
Current Station
Personal Weather Station
Location: Green Valley, IL
Elevation: 516 ft
Nearby Weather Stations

Elev 516 ft 40.48 °N, 89.66 °W | Updated 8 minutes ago

Partly Cloudy
Partly Cloudy
68.9 °F
Feels Like 68.9 °F
N
0.0
Wind Variable Wind from ESE
Gusts 0.0 mph

Today
High -- | Low -- °F
--% Chance of Precip.
Yesterday
High -- | Low -- °F
Precip. -- in
6:29 AM 7:24 PM
Waning Gibbous, 49% visible
Pressure 30.07 in
Visibility 10.0 miles
Clouds Clear
Dew Point 66 °F
Humidity 92%
Rainfall 0.00 in
Snow Depth Not available.
UV 0 out of 12
Pollen 9.20 out of 12
Air Quality Not available.
Flu Activity Not available.
METAR KPIA 051054Z 14003KT 10SM CLR 23/19 A3009 RMK AO2 SLP181 T02330189
Pressure 30.07 in
Visibility 10.0 miles
Clouds Clear
Dew Point 66 °F
Humidity 92%
Rainfall 0.00 in
Snow Depth Not available.
UV 0 out of 12
Pollen 9.20 out of 12
Air Quality Not available.
Flu Activity Not available.
METAR KPIA 051054Z 14003KT 10SM CLR 23/19 A3009 RMK AO2 SLP181 T02330189

10-Day Weather Forecast

×

Almanac

Astronomy

Sep. 05, 2015 Rise Set
Actual Time
Civil Twilight
Nautical Twilight
Astronomical Twilight
Moon
Length of Visible Light
Length of Day
Tomorrow will be .
, % of the Moon is Illuminated

Today's Extremes

State Highs State Lows

Community

WunderPhotos

Upload Photos

1,852,445 photos uploaded!

WunderBlogs® & News

Nearby

Air Quality

  Air Quality AQ Index Pollutant
Not available.

Snow Depth

Station Depth Elevation

Earthquake Activity

City Distance Mag. Time & Date
Minimum magnitude displayed is 2.5.

Coastal Water Temperatures

Place Temperature

Stations

Nearby Weather Stations

Station Location Temp. Windchill Dew Point Humidity Wind Precip. Elev Updated Type